Voltar ao catálogo

SENTINEL 2B

AtivoCiênciaSSO
NORAD 42063·PAYLOAD·🇪🇺 EU

Lançado Mar 7, 2017 de Guiana Space Centre

Loading…

Próximas Passagens (próximas 24 horas)

TLE

AtualizadoSource: Space-Track

Época: Sep 14, 2026, 15:33 UTC

1 42063U 17013A   26257.64804561  .00000152  00000-0  74626-4 0  9990
2 42063  98.5721 331.1334 0001206  85.3188 274.8133 14.30814534497437

Acompanhe SENTINEL 2B em tempo real com AllMySat

Download on the App Store